Terminal Aerodrome Forecast
Issued by NWS

Home | Current Version | Previous Version | Text Only | Print | Product List | Glossary On
Versions: 1 2 3 4 5 6 7 8 9 10 11 12 13 14 15 16 17 18 19 20 21 22 23 24 25 26 27 28 29 30 31 32 33 34 35 36 37 38 39 40 41 42 43 44 45 46 47 48 49 50
000
FTAK31 PANC 300531
TAFASN
TAF
PASN 300531Z 3006/3106 04014G20KT P6SM FEW015 BKN021
      TEMPO 3006/3010 3SM -RA BR BKN010
     FM301100 05011KT 4SM BR OVC006
     FM302000 07011KT P6SM OVC015=

USA.gov is the U.S. government's official web portal to all federal, state and local government web resources and services.